Meteo Giornale » Osservazioni meteo Gran Bretagna » Holbeach

ore: 19:20 - Osservazioni Meteo Holbeach
Lat. 52° 52' N Lon. 0° 9' E Alt. 3 metri s.l.m.

sereno

18 °C

Sereno

Temp. 24 Ore

13 °C

22 °C

Ovest/Nord-Ovest

20.3 Km/h

Dew point 12 °C

Umidità 67 %

Visibilità  10 Km

Il sole sorge alle ore 06:08

Il sole tramonta alle ore 19:51

Data e Ora Cielo e Fenomeni T °C DP °C Um. % Pres. hPa Vis. km Vento km/h
Oggi h: 19:20 sereno Sereno 18 12 67 1014 10 O/NO 20.3
Oggi h: 18:50 molto_nuvoloso Molto Nuvoloso 19 12 63 1013 10 O/NO 24
Oggi h: 18:20 poco_nuvoloso Poco Nuvoloso 20 12 59 1013 10 O/NO 27.8
Oggi h: 17:50 poco_nuvoloso Poco Nuvoloso 21 13 60 1012 10 O/NO 25.9
Oggi h: 17:20 nuvoloso Nuvoloso 21 14 64 1012 10 O/NO 18.5
Oggi h: 16:50 coperto Coperto 20 15 72 1012 10 O/NO 22.2
Oggi h: 16:20 coperto Coperto 20 16 77 1011 10 O/NO 16.7
Oggi h: 15:50 coperto_pioggia Pioggia 18 15 82 1011 10 O/NO 24
Oggi h: 15:20 molto_nuvoloso Molto Nuvoloso 21 14 64 1011 10 O 22.2
Oggi h: 14:50 molto_nuvoloso Molto Nuvoloso 21 13 60 1010 10 O/NO 22.2
Oggi h: 14:20 molto_nuvoloso Molto Nuvoloso 22 13 56 1010 10 O 24
Oggi h: 13:50 poco_nuvoloso Poco Nuvoloso 21 13 60 1009 10 O 20.3
Oggi h: 13:20 nuvoloso Nuvoloso 21 14 64 1009 10 O 24
Oggi h: 12:50 molto_nuvoloso Molto Nuvoloso 21 14 64 1009 10 O 20.3
Oggi h: 12:20 nuvoloso Nuvoloso 20 13 64 1008 10 O 22.2
Oggi h: 11:50 nuvoloso Nuvoloso 20 14 68 1008 10 O/NO 20.3
Oggi h: 11:20 molto_nuvoloso Molto Nuvoloso 18 13 72 1008 10 O/NO 27.8
Oggi h: 10:50 molto_nuvoloso Molto Nuvoloso 18 13 72 1007 10 O/NO 22.2
Oggi h: 10:20 nuvoloso Nuvoloso 18 14 77 1007 10 O 24
Oggi h: 09:50 poco_nuvoloso Poco Nuvoloso 17 13 77 1006 10 O 25.9
Oggi h: 09:20 molto_nuvoloso Molto Nuvoloso 16 13 82 1006 10 O 24
Oggi h: 08:50 molto_nuvoloso Molto Nuvoloso 15 13 87 1006 10 O 24
Oggi h: 08:20 coperto Coperto 14 13 93 1005 10 O/SO 18.5
Oggi h: 07:50 coperto Coperto 14 12 87 1005 10 O/SO 18.5
Oggi h: 07:20 coperto Coperto 14 12 87 1004 10 O 18.5
Oggi h: 06:50 nuvoloso Nuvoloso 13 12 93 1004 10 O/SO 16.7
Oggi h: 06:20 nuvoloso Nuvoloso 13 11 87 1004 10 O 16.7
Oggi h: 05:50 nuvoloso Nuvoloso 14 12 87 1003 10 O 14.8
Oggi h: 05:20 coperto_pioggia Pioggia 15 14 93 1003 10 O/SO 16.7
Oggi h: 04:50 molto_nuvoloso Molto Nuvoloso 15 14 93 1003 10 SO 13
Oggi h: 04:20 molto_nuvoloso Molto Nuvoloso 15 14 93 1003 10 S/SO 11.1
Oggi h: 03:50 molto_nuvoloso Molto Nuvoloso 15 14 93 1003 10 S/SO 16.7
Oggi h: 03:20 molto_nuvoloso Molto Nuvoloso 15 14 93 1003 10 S 14.8
Oggi h: 02:50 nuvoloso Nuvoloso 15 14 93 1003 10 S/SO 14.8
Oggi h: 02:20 sereno Sereno 15 13 87 1003 10 S/SO 20.3
Oggi h: 01:50 poco_nuvoloso Poco Nuvoloso 15 13 87 1003 10 S/SO 22.2
Oggi h: 01:20 coperto Coperto 16 14 87 1003 10 S/SO 20.3
Oggi h: 00:50 coperto_pioggia Pioggia 16 14 87 1003 10 S/SO 14.8
Oggi h: 00:20 coperto_pioggia Pioggia 17 14 82 1003 10 S/SO 16.7
Ieri h: 23:50 coperto_pioggia Pioggia 17 14 82 1004 10 S/SO 14.8
Ieri h: 23:20 coperto Coperto 17 13 77 1004 10 S/SO 14.8
Ieri h: 22:50 coperto Coperto 18 14 77 1004 10 S/SO 20.3
Ieri h: 22:20 coperto Coperto 18 14 77 1004 10 S/SO 18.5
Ieri h: 21:50 molto_nuvoloso Molto Nuvoloso 18 14 77 1004 10 S/SO 14.8
Ieri h: 21:20 poco_nuvoloso Poco Nuvoloso 18 14 77 1005 10 S/SO 14.8
Ieri h: 20:50 molto_nuvoloso Molto Nuvoloso 18 14 77 1005 10 S/SO 20.3
Ieri h: 20:20 molto_nuvoloso Molto Nuvoloso 19 14 72 1005 10 S/SO 22.2
Ieri h: 19:50 molto_nuvoloso Molto Nuvoloso 19 14 72 1005 10 S/SO 20.3